Theta_e
347 346 346 347 346 346 346 347 348 348 348 348 349 347 346 348 350 350 350 351 352 351 351 351 349 347 346 346 345 345 345 345 344 345 345 346 347 348 348 345 341 338 335 332 331 332 333 334 336 336 334 333 330 327 324 324 325 326 327 329 330 330 330 331 332 333 334 334 333 333 333 334 335 336 336 336 336 337 338 338 338 338 338 339 339
346 345 346 345 344 345 346 347 347 348 348 348 349 347 345 347 350 350 351 351 352 351 351 350 349 347 344 344 344 346 347 347 346 347 348 349 349 348 345 341 338 336 332 330 330 331 331 331 333 333 332 330 327 325 325 327 329 331 332 332 334 334 333 334 334 334 334 334 333 332 333 335 335 335 336 337 336 335 336 337 337 337 338 338 339
347 345 345 345 344 345 346 346 347 348 348 348 348 347 346 347 349 350 350 351 351 351 350 349 347 345 343 343 343 344 346 347 348 350 350 350 348 346 342 338 335 332 330 330 331 331 332 333 333 332 330 327 325 326 329 330 332 334 335 335 335 335 335 335 334 334 334 334 334 333 334 334 333 334 335 335 334 334 335 336 337 337 338 339 339
347 347 346 345 345 346 346 346 347 348 348 348 348 348 346 347 349 350 350 350 350 350 350 349 346 344 343 343 345 346 346 348 350 351 351 349 347 344 339 334 332 331 332 333 333 334 334 333 331 329 327 326 326 328 330 331 332 334 335 335 334 334 334 334 333 333 333 333 333 333 334 334 333 334 333 332 333 335 335 335 335 336 337 337 338
348 348 347 346 346 347 347 346 346 347 348 348 348 348 347 347 348 349 349 349 349 349 348 348 347 345 344 345 347 349 348 349 349 349 348 346 344 340 335 333 333 333 334 334 333 331 329 327 326 325 325 326 327 329 330 330 331 332 334 334 334 333 333 333 332 333 333 332 332 334 335 334 334 334 332 332 333 334 333 332 333 334 334 336 336
348 349 348 347 346 347 347 347 346 347 348 348 348 349 348 348 349 348 347 346 346 346 345 345 347 347 347 346 347 346 345 344 343 343 342 340 337 333 332 333 334 334 334 331 327 324 324 324 326 326 326 327 328 328 329 330 331 332 333 333 332 331 332 332 332 332 332 332 333 335 336 335 335 334 333 333 332 331 331 332 331 332 332 333 333
349 349 349 348 347 347 347 347 347 347 347 348 348 349 349 349 348 345 343 343 344 344 343 344 347 348 347 346 344 341 339 338 339 338 336 333 332 333 334 335 334 333 329 324 322 321 322 325 327 326 326 328 327 327 328 330 331 332 332 331 331 330 331 331 332 333 332 332 332 333 334 334 334 334 334 334 333 331 330 331 331 330 331 330 330
350 349 349 349 349 348 348 347 347 347 348 348 349 350 350 349 346 343 342 343 343 343 343 345 346 346 346 344 343 341 340 339 337 333 330 331 333 335 335 334 332 328 323 320 319 320 322 325 326 326 327 327 326 325 328 330 331 332 330 330 330 331 331 331 331 331 332 332 332 331 332 333 333 333 333 334 334 333 329 329 329 329 328 327 327
349 349 350 350 349 349 349 349 348 348 349 349 351 350 348 346 343 343 343 344 344 344 344 345 345 345 344 342 340 340 341 339 333 329 330 332 334 333 331 328 325 321 319 318 318 319 321 324 326 326 327 326 325 325 327 329 330 331 330 330 331 330 329 329 329 330 330 331 331 331 331 332 332 332 332 332 332 331 330 328 327 327 326 324 322
349 349 350 350 350 350 350 350 350 350 350 351 351 347 344 343 343 343 344 344 344 345 345 345 344 342 340 336 336 336 335 332 329 331 332 331 329 326 323 322 320 319 318 318 318 320 321 324 326 327 326 325 325 326 326 327 329 330 331 331 330 329 328 328 328 328 329 330 330 330 330 330 331 330 330 329 329 330 330 328 326 324 323 322 320
349 350 350 350 350 351 350 351 351 351 352 351 348 344 342 343 343 345 345 345 344 344 345 343 341 338 333 329 327 327 324 323 325 328 326 323 321 319 318 320 320 318 318 318 319 319 322 325 327 327 326 326 326 326 326 327 329 330 331 331 330 329 329 328 328 328 329 330 329 328 329 329 329 329 328 328 328 330 330 328 325 323 321 320 319
350 350 350 351 352 352 352 352 352 352 352 350 346 343 343 343 344 346 347 345 344 344 344 342 339 334 327 322 321 320 319 319 319 319 317 316 315 315 316 317 317 317 317 318 317 320 324 326 326 326 326 326 326 326 326 327 329 330 330 330 329 329 328 328 328 328 329 328 327 328 329 328 328 327 327 326 326 329 329 325 322 320 320 319 318
350 350 351 351 352 353 352 351 351 352 351 347 344 343 343 344 344 346 346 345 344 344 343 342 337 329 322 320 319 318 318 317 316 315 315 315 315 315 315 316 316 316 316 317 317 321 325 326 326 326 325 325 325 325 325 327 328 329 329 329 329 328 327 327 327 328 328 327 327 328 328 328 327 326 325 325 326 327 326 322 319 318 318 318 317
350 351 351 352 352 352 352 350 350 350 347 344 343 343 343 345 345 346 346 345 344 344 343 340 332 324 320 320 319 318 317 315 315 315 315 315 315 315 315 316 316 316 316 317 318 321 324 325 325 324 324 324 324 324 325 327 328 328 328 328 328 327 327 326 327 327 327 327 327 327 328 328 327 326 325 325 326 326 322 319 318 317 317 317 317
349 350 351 351 352 351 351 350 349 348 345 343 342 342 344 345 346 346 346 345 344 344 343 337 327 321 321 321 319 318 316 315 315 315 316 316 316 315 316 316 316 317 317 317 319 322 324 325 324 324 324 323 323 323 323 325 326 327 327 327 327 327 326 327 327 327 326 326 327 327 327 327 327 327 325 324 325 324 320 318 317 317 317 317 316
349 349 350 351 351 351 350 349 349 347 346 344 342 342 343 344 345 345 345 345 344 342 340 333 325 321 321 321 319 318 316 315 315 315 316 316 316 316 316 317 317 317 317 318 320 323 324 325 324 323 323 323 324 323 322 324 325 326 326 326 326 326 327 327 327 327 327 326 327 327 326 326 327 327 325 323 324 323 319 318 317 317 318 317 317
347 348 349 350 351 351 350 349 349 348 346 345 342 341 342 342 343 344 345 345 343 340 336 330 324 322 322 321 320 318 316 315 315 315 316 316 316 317 317 318 318 317 317 319 321 323 323 323 323 322 322 321 321 321 322 323 323 324 325 325 326 326 327 328 328 328 327 327 327 326 325 325 326 326 326 325 323 321 319 318 317 317 317 317 317
346 348 348 350 351 350 350 349 348 348 346 344 341 341 342 341 342 343 343 343 342 338 333 327 324 323 322 322 320 318 316 315 316 316 316 316 316 317 318 318 318 317 319 321 322 323 323 325 326 325 322 321 321 321 321 322 322 323 324 325 326 326 326 327 327 327 327 327 327 326 326 325 325 325 326 326 324 321 319 318 318 317 317 317 317
345 348 348 349 350 349 349 349 348 348 347 345 343 343 344 344 343 342 341 341 340 337 331 326 325 323 323 322 320 318 317 316 317 317 316 316 317 317 318 318 318 318 322 324 324 325 326 328 328 327 325 325 325 325 325 325 325 325 325 325 326 327 327 327 327 327 326 326 327 327 327 327 327 326 326 326 325 323 321 320 318 318 317 317 317
345 346 347 348 349 349 349 348 347 348 348 347 346 345 346 345 345 346 345 344 342 338 331 326 326 324 323 323 321 319 318 317 318 318 317 316 317 318 318 318 318 321 324 325 325 326 328 328 329 329 328 328 327 327 328 328 328 328 327 326 326 328 329 328 328 327 326 326 326 327 327 328 329 328 327 326 326 325 324 323 321 320 319 318 317
344 345 346 347 348 348 348 347 347 348 348 349 348 347 347 347 347 347 347 346 343 338 331 327 326 325 323 323 322 320 318 318 319 319 317 317 318 318 318 318 319 323 325 325 325 327 328 328 328 329 329 329 328 328 329 329 329 328 328 327 327 328 329 329 328 327 325 325 324 324 324 325 327 328 328 327 327 326 326 326 325 325 324 323 322
343 344 345 347 347 347 348 348 349 349 349 349 348 348 348 348 347 348 349 348 343 338 332 328 327 326 325 323 322 320 318 318 320 319 317 317 318 318 319 318 320 323 325 325 326 328 328 327 328 329 330 329 329 328 328 330 330 329 328 327 327 327 328 328 328 326 325 324 324 323 322 322 324 326 327 328 328 328 328 327 326 326 327 327 327
342 343 344 346 347 347 347 348 348 349 349 349 349 348 348 348 348 348 350 349 345 339 334 330 328 327 326 324 322 320 318 318 319 318 317 317 318 319 319 318 320 323 324 323 325 327 326 327 328 329 330 330 329 328 328 330 331 331 329 328 327 327 327 327 327 326 325 325 324 324 322 321 321 322 323 325 326 328 328 327 327 327 327 328 328
341 341 344 345 346 347 347 348 348 348 349 349 349 349 348 349 349 348 349 349 348 345 337 331 329 328 327 325 322 321 319 318 318 318 317 317 318 318 318 319 321 323 322 322 323 324 325 326 327 328 329 329 329 328 329 330 331 331 329 328 328 328 327 327 327 325 325 325 324 322 321 320 320 320 320 320 322 325 327 328 327 328 328 328 328
341 341 344 344 345 347 347 347 348 348 349 349 348 349 349 349 349 349 349 350 351 348 339 331 329 330 328 325 323 321 319 319 319 318 317 317 318 319 319 320 322 321 320 321 322 323 324 327 328 328 329 329 329 329 329 329 329 329 329 328 328 328 328 328 327 326 326 325 323 322 321 321 320 320 319 319 320 323 326 328 328 328 327 327 327
341 341 343 344 344 346 346 346 347 347 348 348 348 349 349 349 349 349 349 350 351 351 344 335 330 330 329 326 323 321 320 321 321 318 318 317 317 319 319 320 321 321 320 321 322 322 324 326 327 327 328 328 329 329 328 328 327 328 328 328 328 327 328 329 329 328 327 325 325 324 323 322 321 321 320 319 320 322 325 327 327 326 326 326 326
341 341 341 343 344 344 345 345 346 347 348 348 348 348 348 349 349 350 351 351 351 351 348 340 332 330 330 327 323 321 322 323 322 319 318 317 318 321 322 321 320 321 320 321 321 322 323 325 325 326 327 327 328 328 326 325 325 325 326 326 326 327 328 329 329 328 327 326 326 326 323 322 322 321 321 320 321 323 324 324 324 324 323 324 324
342 341 341 343 343 343 344 344 346 347 348 348 348 348 348 348 349 350 351 352 351 351 350 344 336 330 331 329 323 321 324 326 323 321 318 317 319 323 324 321 320 321 321 321 321 322 323 325 326 326 327 327 326 325 324 323 322 322 323 324 325 327 329 329 329 328 327 327 327 325 323 322 321 321 321 321 321 322 323 322 322 322 322 323 323
341 341 342 342 341 342 343 344 346 346 347 349 349 349 350 350 350 351 351 352 352 351 351 348 341 333 332 331 324 322 326 326 325 323 319 319 322 323 321 320 320 321 321 321 321 321 323 326 326 326 326 326 325 324 323 322 322 322 322 324 326 327 328 328 327 327 327 327 327 326 323 322 322 321 321 321 321 321 322 321 321 322 322 323 323
342 341 342 340 340 341 342 343 345 346 347 349 349 350 350 350 351 351 352 352 352 352 351 350 347 339 335 333 326 324 328 328 326 324 321 323 326 323 320 320 321 321 321 321 321 321 323 325 326 326 325 325 324 323 324 325 324 323 323 325 326 326 326 326 326 326 327 327 327 326 324 323 322 321 321 321 320 320 320 320 320 320 321 322 322
342 340 340 339 340 342 342 343 344 345 347 348 348 349 349 351 352 351 352 352 351 352 352 351 351 344 339 334 327 327 332 331 327 325 325 326 326 321 320 321 321 321 322 321 321 321 323 325 325 324 324 323 323 323 325 327 327 326 325 326 327 327 327 327 327 327 326 326 327 327 326 324 322 322 321 321 320 319 319 318 318 319 319 320 321
340 338 339 340 341 341 342 343 344 345 347 347 348 350 350 352 352 351 352 352 352 353 352 352 352 346 340 335 329 330 336 333 328 328 330 328 322 320 321 321 321 322 322 321 321 321 322 323 323 323 322 322 323 324 326 328 328 327 326 326 327 327 327 327 327 327 326 326 326 327 327 326 323 322 321 321 321 320 319 318 318 318 318 319 320
338 340 340 339 340 339 340 341 342 344 345 346 348 350 350 351 351 352 353 352 352 353 352 352 350 345 341 335 330 332 338 335 330 332 332 326 320 320 321 321 322 322 322 321 321 321 321 322 322 322 322 322 323 324 326 328 329 328 327 327 327 327 327 327 327 327 326 326 326 326 327 326 324 322 321 321 322 321 321 319 318 318 318 319 319
338 339 338 338 339 340 340 341 342 344 345 347 349 350 350 351 352 353 353 353 353 352 350 349 347 345 343 338 332 332 337 336 333 332 329 323 321 321 321 322 322 322 321 321 321 321 321 322 322 322 322 322 323 325 327 328 329 328 327 327 327 327 327 327 327 327 325 324 325 326 326 326 325 324 322 321 321 322 322 321 320 319 317 317 317
337 337 337 338 339 340 341 342 343 344 345 348 350 351 351 352 353 353 353 353 353 351 350 349 348 346 344 341 337 335 336 336 334 331 327 323 322 323 321 322 322 321 322 321 321 321 321 321 322 323 323 323 323 324 326 328 329 328 327 327 327 327 327 327 328 326 324 324 324 325 326 326 325 323 321 320 321 321 322 322 321 320 318 317 316
336 336 337 339 340 341 342 343 344 346 346 347 348 349 351 352 353 354 354 354 352 351 350 349 348 346 344 343 340 336 335 337 335 332 328 324 324 324 323 322 322 321 322 321 321 321 321 321 322 324 324 324 324 324 325 326 328 329 328 328 328 328 328 328 328 326 324 323 324 324 325 325 324 322 320 320 320 321 321 322 322 321 319 317 316
336 336 336 337 336 337 337 339 342 345 348 350 349 348 350 352 353 354 354 353 351 349 347 346 347 346 344 343 341 337 336 338 336 332 329 326 326 327 326 324 322 322 322 321 321 321 321 322 322 323 324 325 325 325 325 326 328 329 329 329 328 328 328 328 327 326 325 323 324 324 325 325 322 321 320 320 320 321 321 322 322 320 319 317 317
334 334 334 334 333 334 335 336 338 342 347 351 351 350 350 351 352 353 352 349 347 346 346 345 346 345 343 341 340 338 337 338 335 332 331 331 330 330 328 324 323 323 323 322 322 322 322 322 322 323 325 326 327 327 326 326 327 329 329 330 329 328 328 328 327 327 325 324 324 324 324 324 322 321 320 320 320 321 321 321 321 320 319 318 319
333 333 333 334 335 335 336 337 339 340 344 347 350 351 351 351 351 351 351 350 348 347 346 345 344 345 343 340 340 340 338 336 334 331 333 334 333 331 329 327 328 330 329 327 325 325 324 323 322 323 324 325 326 327 326 327 327 328 329 329 329 329 328 328 327 326 325 324 324 324 324 324 323 321 319 319 320 320 321 321 321 320 319 319 321
333 334 335 335 335 335 337 339 339 339 341 344 347 350 350 350 351 351 351 351 349 348 347 345 343 343 343 341 340 340 339 337 335 333 333 335 334 333 333 334 335 336 335 334 333 332 330 328 327 326 326 325 325 326 327 328 328 329 330 329 329 329 328 328 327 325 324 324 323 323 323 322 321 319 317 318 319 320 321 321 321 320 320 321 322
334 335 335 335 336 338 340 341 339 338 340 343 346 348 350 351 351 351 350 349 348 347 346 345 342 341 341 342 341 339 339 337 335 333 334 335 335 335 336 337 338 338 338 338 338 337 335 333 332 332 331 331 330 330 330 329 327 328 330 329 328 329 329 328 327 325 324 324 322 322 322 320 319 317 317 318 319 321 321 321 320 320 321 323 323
336 337 337 338 340 340 340 339 338 337 340 343 347 349 350 351 351 351 350 348 346 345 344 344 341 340 340 341 340 338 337 336 335 335 335 336 337 337 338 339 339 340 340 340 340 339 337 335 334 334 334 334 334 334 334 331 327 327 329 329 328 329 328 327 326 325 324 323 322 322 321 320 318 316 316 318 319 320 321 321 321 322 323 324 324
338 339 340 340 341 340 339 339 340 341 343 346 348 349 351 352 352 351 348 345 344 343 342 341 340 338 339 338 337 336 337 336 336 335 336 338 339 339 340 340 340 341 341 340 338 337 336 335 333 333 333 333 334 334 334 331 328 327 328 328 327 328 328 326 325 325 324 324 323 322 321 320 318 316 316 317 319 320 321 321 322 323 324 324 323
340 339 339 340 341 342 343 343 343 344 345 347 348 350 351 351 350 348 346 344 342 341 340 338 338 337 336 334 333 336 337 336 337 338 339 339 340 340 340 339 339 340 340 338 334 333 333 333 333 333 333 333 333 333 332 331 329 328 327 327 327 327 327 326 326 325 325 324 323 322 321 320 318 316 316 318 319 320 321 321 323 323 324 323 322
340 340 340 342 346 347 346 345 344 344 347 349 350 351 351 350 347 345 343 342 339 338 337 337 336 335 333 332 334 336 336 337 338 338 338 337 338 338 338 339 340 340 339 335 331 329 331 332 333 333 333 333 333 333 332 331 329 326 326 327 328 327 326 326 326 326 325 324 324 322 321 320 318 316 316 319 320 321 322 322 323 323 323 322 320
342 344 347 348 349 349 346 346 347 347 349 351 352 352 351 348 345 343 341 340 337 336 337 337 335 334 333 334 334 331 329 332 334 334 335 336 338 338 337 339 340 338 335 332 329 328 329 330 331 331 331 331 332 332 331 329 327 327 327 328 329 327 326 325 326 326 325 325 324 322 321 320 318 315 316 319 321 322 322 322 323 322 321 320 319
342 348 350 350 350 348 346 347 348 349 350 352 353 353 350 346 344 343 341 340 338 337 338 337 336 337 337 334 330 328 330 331 330 331 333 334 336 336 336 336 336 333 331 329 328 328 329 329 330 330 330 329 329 329 329 329 329 329 329 329 329 327 325 325 326 325 325 325 324 322 320 319 316 315 318 321 322 322 322 322 322 321 320 319 318
342 346 348 349 349 348 347 348 349 349 350 350 351 351 348 346 344 342 340 339 339 338 338 337 336 337 336 334 334 335 334 331 329 328 328 328 331 332 332 332 331 330 329 329 328 328 328 328 329 329 329 328 328 327 328 329 329 328 328 328 328 327 325 325 325 325 325 325 323 320 318 317 315 315 319 322 323 322 322 321 320 319 319 318 318
341 343 345 347 348 349 350 351 350 349 348 346 346 346 346 345 343 340 338 337 336 334 334 335 334 330 329 332 336 333 327 322 323 323 323 324 327 328 329 330 330 329 329 328 327 327 327 328 328 328 328 328 327 327 328 328 328 327 326 327 328 327 326 325 324 325 324 323 320 318 316 315 316 319 321 322 322 321 321 320 319 319 318 317 317
339 341 343 346 349 351 352 351 350 348 346 343 343 344 344 342 339 336 332 329 328 327 328 330 329 325 324 330 333 329 323 320 319 321 323 326 328 328 329 330 329 328 327 326 325 326 327 327 327 327 327 327 326 326 326 326 327 327 326 327 327 327 326 325 324 324 323 320 317 317 315 315 317 320 321 320 320 320 319 319 318 318 317 317 316
337 339 342 344 346 348 348 348 347 345 343 343 342 342 340 337 335 333 329 329 330 329 327 327 326 324 327 330 330 329 327 323 322 324 327 329 330 330 329 328 326 325 325 325 326 327 327 327 326 326 326 326 325 325 325 325 326 325 326 327 327 326 325 324 323 323 321 318 317 317 314 314 317 319 320 320 319 319 318 318 317 317 317 316 315
Wind_Speed
32 35 35 32 32 31 30 29 27 27 24 22 23 22 21 20 20 20 20 19 18 17 16 17 17 17 18 18 18 16 15 14 14 13 13 13 13 13 11 10 11 12 11 11 9 8 8 8 8 9 11 14 16 17 15 12 11 10 10 10 11 11 10 11 11 11 11 11 11 10 10 10 9 9 8 8 8 7 8 8 9 10 10 11 12
30 34 36 32 32 31 31 30 29 29 27 25 25 23 21 21 20 20 20 21 20 18 17 17 17 17 17 17 17 17 17 16 16 15 15 15 15 13 12 12 13 14 13 11 10 9 10 11 11 12 14 16 15 13 10 9 8 9 9 9 9 9 8 8 9 9 10 10 10 10 9 6 6 6 5 4 5 7 8 8 9 9 10 10 11
30 34 37 35 33 32 31 31 30 30 28 27 26 24 22 21 20 20 21 22 20 19 18 17 16 16 16 15 15 16 17 17 18 17 17 16 15 14 14 14 15 14 13 11 11 11 12 12 13 13 14 13 10 8 8 7 7 7 7 7 7 6 6 7 7 8 9 9 9 10 10 8 6 4 3 5 8 8 7 8 9 9 10 11 12
33 34 36 37 34 33 33 32 31 31 30 29 29 27 25 23 21 21 22 22 21 20 19 17 16 16 15 14 14 15 17 18 18 18 17 16 16 16 15 15 15 14 12 12 12 12 13 13 13 12 11 10 8 7 7 6 6 6 5 5 5 5 5 5 5 6 7 8 7 8 9 8 7 6 8 9 6 4 5 7 8 10 11 12 13
37 35 36 38 37 36 34 32 32 32 32 31 30 29 27 24 22 22 23 22 22 21 20 18 17 17 17 17 17 18 19 19 18 18 18 17 17 17 15 14 14 12 11 12 13 13 13 12 11 10 9 8 7 7 6 6 6 6 6 5 5 5 4 4 4 4 5 6 6 6 5 5 7 10 13 10 5 5 7 7 8 9 10 11 11
40 38 38 39 39 37 34 33 33 33 33 31 30 29 27 25 23 22 23 23 22 21 21 20 20 19 20 20 20 20 19 19 19 19 19 18 18 16 15 14 13 12 12 12 13 12 12 10 9 8 7 6 6 7 7 6 6 6 6 6 5 5 5 5 5 5 5 5 5 5 4 5 8 11 11 10 9 9 8 8 8 9 10 10 10
40 40 39 40 40 38 37 35 35 34 33 31 30 29 27 25 24 23 23 22 22 22 21 22 21 21 21 21 20 19 18 18 18 18 18 18 16 15 15 14 14 13 13 12 11 11 10 9 9 9 6 5 6 6 6 6 6 5 5 6 6 5 5 5 6 5 5 4 4 5 5 6 7 8 8 10 12 11 9 8 9 10 10 10 10
41 41 41 42 41 40 39 38 36 34 33 32 31 30 28 26 25 24 23 23 23 23 23 23 23 22 21 20 19 18 18 18 18 18 18 17 16 16 16 16 15 14 12 11 11 11 11 10 10 9 6 5 6 6 6 6 5 5 6 6 5 5 4 5 6 6 5 5 5 5 5 5 6 6 7 7 9 12 13 11 9 9 8 8 9
43 44 43 43 43 42 41 39 37 35 33 33 31 30 28 27 26 25 25 24 24 24 24 24 23 22 21 20 19 19 18 18 18 18 17 17 18 18 17 17 15 13 12 11 11 10 10 9 8 7 6 6 7 6 6 7 6 5 6 6 5 5 5 6 6 7 7 6 6 5 5 5 5 5 5 6 7 10 12 11 11 10 6 4 8
44 45 45 44 44 43 41 40 38 36 34 32 31 30 29 29 28 27 27 26 25 25 25 24 23 21 21 20 19 19 19 20 19 18 18 18 19 18 17 15 13 12 11 11 10 9 8 7 6 6 6 7 7 7 7 7 6 6 5 5 5 6 6 7 7 7 7 7 6 5 5 5 4 4 4 5 5 6 8 9 11 12 10 7 9
44 45 45 45 44 42 42 41 39 38 35 33 32 32 31 31 30 29 29 28 26 26 25 24 23 22 21 20 19 20 20 20 19 19 19 19 18 17 14 12 11 11 10 10 9 8 7 7 6 6 6 7 7 7 8 7 7 6 5 6 6 6 7 7 7 7 7 6 5 5 5 5 5 4 4 5 5 5 6 8 8 11 13 11 11
45 46 46 46 44 43 43 42 41 39 36 35 35 34 33 33 32 31 30 29 28 27 25 24 23 23 22 20 19 19 18 18 17 17 18 17 15 13 12 11 11 10 10 10 10 8 7 8 8 7 7 6 7 8 8 7 7 6 6 6 6 6 7 7 7 7 6 6 5 5 5 5 5 5 5 6 6 6 7 7 7 9 11 12 12
44 46 47 46 45 45 45 44 42 41 38 37 37 36 35 34 33 33 32 31 29 28 27 25 24 23 22 21 20 19 18 17 16 16 16 14 12 12 12 12 11 10 10 10 9 8 9 9 8 7 7 6 7 8 8 7 7 7 6 6 6 6 6 7 7 7 6 6 6 6 6 6 6 6 6 7 7 7 8 8 8 8 10 11 12
45 46 46 45 46 46 46 45 43 42 39 38 38 37 37 36 35 34 33 31 30 29 28 27 25 24 22 21 20 19 18 17 17 16 14 12 12 12 12 11 10 10 9 9 9 9 9 8 8 7 7 7 7 7 8 8 8 8 7 7 6 6 7 6 6 7 7 7 7 7 7 8 8 8 8 8 8 7 8 9 10 10 11 11 12
45 46 46 46 48 48 47 46 44 42 40 40 40 39 38 37 36 35 34 33 32 31 29 28 26 25 23 22 20 19 18 18 17 14 13 12 12 12 12 11 10 9 9 8 8 9 8 7 7 8 8 8 8 8 8 8 8 8 8 8 7 7 7 7 7 7 8 8 8 8 9 9 10 9 9 9 9 8 8 9 11 13 14 14 15
45 46 47 47 48 48 48 46 45 43 42 41 41 41 39 39 38 36 35 34 33 32 31 29 27 26 24 23 21 19 19 18 17 14 12 12 12 12 11 10 10 9 8 7 7 8 7 6 6 7 9 9 9 9 9 9 9 9 9 9 8 8 7 7 8 8 8 9 10 10 10 10 10 10 10 10 10 9 9 10 11 12 14 16 17
45 48 49 49 48 48 48 47 46 44 43 43 43 42 40 39 38 37 35 34 34 33 32 30 29 27 25 24 22 20 20 18 15 13 12 12 12 12 11 11 10 9 7 6 6 7 6 5 5 6 7 8 9 8 8 9 9 9 9 8 8 9 8 8 9 9 10 10 11 11 12 12 12 12 12 11 11 11 11 11 11 12 13 15 17
47 48 49 48 47 48 49 48 47 46 45 44 43 42 40 39 38 37 36 36 35 35 33 32 30 28 27 25 22 21 20 17 14 13 13 13 13 12 12 11 10 8 6 6 7 7 6 4 3 4 5 5 4 5 5 6 8 8 9 9 9 9 10 10 10 10 11 12 12 12 13 13 13 14 14 13 13 13 13 12 13 13 14 15 15
44 45 45 45 46 48 49 49 48 47 46 45 43 42 41 40 38 37 36 36 36 36 34 33 31 30 28 26 23 21 19 16 15 14 14 13 13 12 12 11 10 9 8 8 8 8 6 5 3 3 4 3 2 2 4 5 6 7 8 9 10 11 11 11 11 12 12 13 14 14 14 14 14 15 16 16 15 15 15 15 15 15 15 16 17
43 44 45 46 47 48 49 49 49 49 47 46 45 44 43 41 39 38 37 36 36 36 36 34 33 31 29 27 24 22 19 17 16 15 14 13 12 12 12 11 10 10 9 9 9 8 6 6 5 5 5 5 4 4 5 6 7 8 8 8 10 12 13 12 12 13 13 13 14 15 15 15 15 16 17 18 18 18 18 18 17 16 16 18 19
44 45 47 47 47 48 49 49 49 49 48 48 47 46 45 43 41 39 38 37 37 38 38 36 34 32 31 28 26 22 20 18 17 16 15 13 13 13 12 11 12 12 10 9 9 8 7 7 7 7 8 8 7 6 7 9 10 11 11 10 10 11 14 14 13 13 13 14 15 16 16 16 16 17 17 18 19 18 19 19 19 19 18 19 22
46 46 47 46 46 47 47 48 49 48 48 49 49 48 47 45 43 41 40 39 38 39 40 38 36 33 31 29 26 23 20 19 17 16 15 14 14 13 12 13 13 13 11 9 8 8 8 8 9 10 10 10 10 9 9 11 13 14 13 12 11 11 13 14 14 14 14 14 15 16 17 16 16 17 18 19 19 19 19 20 20 20 21 21 23
47 47 46 46 46 46 46 47 48 49 49 49 49 49 48 47 45 44 43 41 39 40 40 39 36 33 31 29 27 24 21 19 17 17 16 15 14 13 14 14 13 12 11 9 8 8 9 10 12 13 13 13 12 12 12 14 15 16 15 14 13 13 14 15 15 15 14 14 15 16 16 16 16 18 19 20 20 20 19 20 21 21 22 23 24
46 46 45 44 44 43 44 46 47 49 50 49 49 50 49 48 47 46 45 42 41 41 40 38 35 33 32 30 27 25 22 19 18 17 16 15 14 14 15 15 13 12 11 10 9 9 10 12 14 14 14 14 14 14 14 15 16 17 17 16 15 14 15 15 16 15 15 14 15 15 16 15 16 18 19 20 21 20 20 20 21 22 23 25 25
44 42 41 41 41 42 44 45 47 50 50 50 51 50 50 50 49 48 46 44 44 43 39 37 37 36 32 30 29 26 23 20 18 17 16 15 14 15 14 13 12 12 11 10 10 11 12 13 14 15 15 15 15 15 16 16 17 18 18 17 16 14 14 15 16 15 15 14 14 15 15 15 16 18 19 19 19 20 19 20 21 23 24 25 25
42 41 41 41 41 44 45 46 48 50 51 52 52 51 51 50 50 49 48 47 46 45 40 38 38 37 33 30 30 28 24 21 19 17 16 14 15 14 10 10 13 13 12 12 12 12 12 13 15 16 16 17 17 18 18 18 18 18 18 18 17 15 14 15 16 16 15 14 14 15 15 15 16 18 19 19 18 18 19 20 22 23 24 25 25
41 42 42 42 43 44 45 46 48 49 51 52 52 52 51 51 50 50 49 48 47 46 43 38 37 38 37 34 32 29 24 20 19 17 15 15 17 12 8 9 14 15 13 13 12 11 12 14 16 17 17 18 19 19 20 20 19 19 19 18 17 15 15 15 16 15 14 14 14 16 16 16 16 18 19 19 18 18 20 21 23 24 24 25 26
41 41 41 41 42 43 44 45 47 48 50 51 51 52 51 51 51 50 49 49 47 47 45 40 37 40 42 37 32 29 23 19 19 18 16 18 17 11 8 11 16 16 14 13 12 12 14 16 17 18 18 19 19 20 20 20 19 19 18 17 16 16 16 15 16 15 14 14 15 16 17 17 17 18 18 19 19 19 21 23 24 24 24 24 25
39 40 40 39 39 39 40 42 44 46 48 49 50 51 50 50 50 49 49 49 48 47 46 43 39 40 44 39 32 29 24 19 18 17 18 17 12 10 11 15 18 17 15 14 13 14 16 18 19 19 19 19 20 20 19 18 17 17 17 17 16 16 15 15 15 15 15 16 16 17 17 17 18 18 18 18 19 20 21 23 23 23 23 23 24
39 39 38 36 34 34 36 39 42 45 47 48 49 50 50 50 49 49 48 48 48 47 46 46 42 42 44 40 32 29 26 21 18 19 20 13 11 12 18 19 19 18 16 15 15 16 17 19 20 20 20 20 20 19 17 15 15 14 14 14 14 13 13 14 15 16 17 18 18 18 18 18 18 18 18 18 19 20 21 22 23 23 22 22 22
37 36 34 32 32 33 34 36 39 42 45 47 48 48 49 49 48 48 48 48 48 47 46 47 44 43 44 38 31 30 28 21 18 19 16 14 14 19 22 21 20 19 17 17 17 18 19 20 21 20 20 20 19 18 15 13 13 13 13 13 13 13 13 14 16 17 19 19 20 20 20 19 19 19 19 19 19 20 20 21 22 22 22 21 21
34 33 32 32 32 32 34 34 36 39 42 44 46 47 47 47 47 48 48 48 48 47 46 46 45 45 44 37 32 32 28 22 19 16 17 17 19 24 24 22 22 21 19 19 19 19 19 20 20 21 21 20 19 17 15 13 13 14 15 15 15 15 15 16 17 19 20 21 21 22 22 21 20 21 21 21 21 21 21 21 22 22 22 21 21
32 32 32 31 31 31 31 32 32 35 38 40 42 44 44 44 45 47 47 48 48 48 47 45 43 43 40 34 32 33 30 25 20 18 19 21 24 25 24 23 22 22 21 21 21 20 20 21 21 21 21 20 19 18 16 14 14 15 16 17 17 17 17 17 19 20 21 21 22 22 23 22 22 21 22 22 23 23 22 22 22 22 23 22 22
31 31 29 29 30 31 31 32 32 33 34 37 39 41 41 42 43 44 46 48 48 46 44 39 36 35 32 28 32 34 31 25 20 17 20 26 27 26 25 23 24 24 24 23 22 21 21 21 21 22 21 21 20 19 17 15 15 16 17 19 19 18 18 19 20 21 22 21 21 22 23 23 22 22 22 23 23 24 24 23 23 23 23 23 23
26 25 26 27 28 29 29 29 29 30 33 36 38 39 40 40 42 43 45 46 46 45 42 36 33 32 29 28 33 36 32 26 20 17 23 28 28 26 25 25 26 26 25 24 23 23 23 22 23 23 22 22 22 20 18 17 16 17 18 19 20 20 19 20 21 22 22 21 20 21 22 23 23 23 22 22 22 24 24 25 24 24 25 24 23
19 20 22 23 23 23 23 24 26 27 31 34 35 36 38 39 40 42 44 45 46 46 42 34 31 31 29 30 36 38 32 24 18 18 24 29 29 27 26 26 26 27 27 26 25 25 24 24 24 23 24 25 24 22 21 19 17 17 19 21 21 21 20 21 22 22 21 20 20 20 21 22 22 22 21 21 22 24 25 25 25 25 26 26 24
16 17 17 15 13 13 14 17 20 22 25 28 30 33 35 37 38 40 42 42 42 43 38 30 28 30 29 31 37 39 30 20 17 18 21 23 26 28 27 26 26 28 28 27 27 27 26 25 26 26 27 27 26 25 24 21 19 19 22 23 23 22 22 23 23 22 21 20 19 19 20 20 21 21 21 21 22 24 25 25 25 26 27 28 26
14 12 10 8 7 7 8 10 13 18 21 24 27 29 31 34 36 37 37 35 35 37 35 28 27 30 30 32 38 39 30 21 18 17 17 19 23 27 27 26 26 28 28 27 27 27 26 27 28 29 29 27 26 25 25 25 23 21 23 25 25 24 25 25 24 22 21 20 18 18 19 20 21 22 23 23 24 24 24 24 25 26 28 28 26
11 9 7 7 7 8 9 10 13 16 19 21 24 26 28 31 33 35 36 36 37 38 35 30 29 32 33 33 36 36 30 24 21 18 17 18 20 22 23 24 25 27 28 27 27 27 28 29 31 31 30 29 27 26 26 28 27 25 24 24 25 26 27 27 25 21 20 19 18 17 18 19 22 24 25 24 23 23 23 23 24 26 28 28 26
11 9 8 8 9 11 11 11 11 13 17 20 22 23 24 27 29 32 36 39 39 38 35 32 31 33 35 35 33 31 27 25 24 21 19 18 17 17 20 23 25 27 28 29 29 29 29 30 31 32 32 32 31 29 28 29 29 29 28 26 25 28 29 28 24 21 19 18 16 16 17 20 22 24 24 23 22 22 22 23 24 26 27 27 25
10 9 8 8 10 11 11 10 10 11 14 17 18 20 22 24 26 30 35 37 35 33 33 31 27 28 34 36 32 27 24 24 25 23 19 16 15 17 21 24 26 28 29 30 31 30 29 30 31 32 32 32 32 32 32 30 29 30 31 29 27 28 29 27 24 20 18 16 15 15 17 20 22 23 23 21 20 21 21 23 24 25 25 25 25
8 8 8 9 10 11 11 11 11 11 12 13 14 17 20 22 26 29 30 30 28 27 29 30 27 28 33 36 33 27 22 22 23 21 17 16 17 20 23 25 27 29 30 31 31 30 30 30 30 30 30 30 32 35 35 31 28 27 29 29 28 27 28 28 24 20 16 15 15 16 17 20 22 22 22 21 20 20 21 22 23 23 23 23 24
5 5 7 9 11 12 12 12 11 10 11 12 12 14 17 21 24 25 23 23 23 24 26 26 25 25 28 31 31 26 20 18 18 16 16 18 20 22 23 25 26 27 28 28 26 27 28 29 28 27 28 28 30 32 32 28 25 24 24 25 25 26 28 26 21 17 16 16 16 17 18 19 21 22 21 20 20 20 20 21 21 21 22 23 25
4 5 8 11 13 13 11 10 8 8 9 11 11 13 16 18 20 20 20 21 21 22 24 22 20 21 24 27 27 22 16 14 15 17 19 20 21 22 22 23 24 24 24 23 22 23 25 26 26 25 25 25 25 26 26 24 23 23 23 24 25 27 27 23 17 15 17 17 17 18 18 19 21 21 20 19 19 19 20 20 20 20 22 23 24
6 8 11 12 13 11 9 8 7 7 9 10 12 14 15 15 15 17 19 19 19 21 23 22 21 24 27 26 23 18 14 16 18 20 21 21 21 21 21 21 22 22 22 21 20 21 22 23 23 22 21 22 22 23 22 21 22 23 23 23 26 26 23 20 18 18 18 18 18 18 19 20 21 21 19 18 18 18 19 19 19 21 22 23 22
8 10 11 12 12 10 9 8 8 9 10 11 13 14 14 14 14 17 18 18 19 22 23 22 20 21 21 20 17 15 17 20 21 20 21 20 20 20 21 21 21 21 20 19 19 19 20 20 19 18 18 19 20 19 19 20 22 23 23 24 26 24 20 19 19 18 18 19 19 19 19 20 21 21 18 17 17 18 18 19 20 21 22 22 21
8 10 11 11 12 11 10 10 10 10 10 11 14 15 14 13 16 17 16 16 17 19 19 15 13 13 14 16 18 19 20 20 19 19 20 20 21 21 21 21 20 18 18 18 18 19 19 18 17 16 17 18 18 19 20 21 21 22 22 23 24 21 18 18 18 18 19 20 19 19 20 20 21 20 17 17 17 18 18 18 19 20 21 20 19
8 11 12 12 12 12 12 11 10 10 10 11 13 14 14 16 17 15 12 13 15 15 14 12 12 14 16 18 19 18 18 17 17 19 21 21 21 21 20 18 17 17 17 18 18 18 18 17 16 17 17 18 19 19 19 19 19 18 18 19 20 17 15 16 18 19 20 19 19 20 20 19 19 17 16 16 17 17 17 18 19 20 20 19 19
8 10 12 12 12 12 12 11 11 11 10 10 10 11 13 15 15 12 11 13 15 14 14 14 14 15 15 16 17 17 18 17 17 19 21 21 20 18 18 17 16 17 17 17 17 17 17 16 16 16 17 17 17 17 16 16 16 17 15 15 16 16 16 16 18 18 18 18 19 19 17 16 16 15 15 16 16 16 17 18 19 19 19 19 20
7 9 11 12 11 11 11 12 12 11 10 8 8 11 14 15 14 13 13 14 15 16 15 13 12 12 13 15 18 20 21 18 17 18 19 19 17 16 16 16 15 16 16 16 16 16 16 16 17 16 16 16 16 15 15 14 14 14 14 14 16 17 17 17 17 17 18 18 17 15 13 14 15 15 15 15 15 16 18 18 19 19 20 21 21
6 8 9 10 10 10 11 12 12 10 8 8 11 15 17 17 16 16 15 15 15 14 13 9 7 10 16 20 22 23 22 19 17 17 17 16 15 15 15 15 15 15 15 15 15 15 16 17 17 16 15 15 15 14 14 14 14 13 13 15 17 18 17 17 16 16 17 17 14 12 12 14 14 15 16 16 17 18 18 18 18 20 21 21 19
Wind_Direction
206 206 207 208 208 207 207 207 207 204 202 202 202 201 202 200 198 198 199 202 206 207 210 215 217 220 224 226 230 234 239 245 252 258 260 260 259 258 256 253 254 258 266 276 284 290 294 295 290 284 284 289 296 300 301 302 301 300 299 298 300 300 296 293 293 296 297 298 297 293 295 297 295 294 289 286 284 284 285 280 274 269 267 265 263
203 203 204 205 205 205 206 206 205 203 202 202 202 204 205 206 207 204 203 205 210 214 217 220 221 224 227 229 232 235 240 247 252 253 251 252 253 252 251 253 259 267 276 283 288 291 292 294 293 292 292 295 299 302 305 308 307 305 303 301 302 302 299 294 293 296 298 305 305 301 303 299 294 293 284 285 291 290 289 282 277 277 275 272 269
199 201 202 204 204 203 204 205 205 204 203 202 202 204 206 208 210 209 208 209 214 219 222 226 228 228 230 232 235 236 237 240 243 245 246 248 247 246 251 256 264 271 277 283 285 288 292 293 292 293 294 297 302 305 309 311 312 311 308 305 304 304 301 296 298 302 307 314 314 313 316 316 314 299 281 307 310 302 298 293 288 288 288 288 286
194 197 201 202 202 202 203 205 205 203 203 203 203 204 207 210 212 212 213 216 220 223 226 230 229 226 226 227 230 231 231 234 240 246 248 246 244 249 256 260 265 270 275 280 286 290 292 291 291 293 295 299 305 306 309 312 315 314 312 312 309 309 309 306 308 310 312 314 314 317 319 319 323 315 310 317 318 307 306 305 300 295 293 293 294
193 196 199 200 201 202 205 206 205 203 203 204 205 206 209 212 216 218 220 222 224 225 227 226 220 218 217 217 220 223 227 233 240 244 246 246 249 255 258 258 260 265 271 279 286 288 286 286 288 288 291 300 304 306 311 311 310 313 318 321 319 321 326 326 322 317 312 311 309 314 318 315 317 318 319 320 313 303 304 305 302 299 297 295 296
197 198 199 200 202 204 205 206 205 205 206 207 208 209 212 216 220 222 222 222 223 223 223 220 215 214 216 218 221 225 231 236 241 245 249 252 254 256 255 255 256 261 270 277 280 278 277 279 279 280 287 296 300 304 305 303 305 311 316 318 319 323 327 326 325 325 322 316 304 298 293 295 305 314 319 314 306 305 305 311 313 306 303 303 304
199 199 200 200 202 204 204 205 206 208 208 209 209 211 215 220 223 221 219 218 217 217 217 216 216 218 223 227 230 236 239 241 244 247 249 251 252 253 253 255 258 263 269 270 269 268 270 271 272 281 290 290 292 296 296 296 298 303 307 311 316 321 324 322 322 327 326 316 303 294 289 287 293 300 306 309 310 310 312 318 317 311 311 313 313
198 198 199 200 202 204 205 206 207 209 210 209 210 214 218 220 220 217 214 214 212 212 213 215 218 222 226 230 233 238 242 244 246 244 244 245 247 250 253 256 261 265 265 260 258 262 266 266 270 283 292 288 290 293 294 295 296 300 302 305 311 316 317 315 315 319 315 308 304 301 297 290 286 286 288 294 299 303 312 321 320 318 324 326 323
201 200 200 202 204 206 207 207 208 210 211 213 216 217 217 214 213 212 212 212 210 211 213 216 220 224 228 230 231 234 237 239 240 239 240 242 246 251 253 256 258 259 255 252 254 256 258 263 269 277 284 285 290 293 293 292 291 292 293 294 300 303 308 310 309 309 307 307 311 308 302 296 291 284 276 275 280 292 308 323 327 329 346 359 341
203 203 203 204 206 208 209 209 210 212 214 218 219 216 212 209 209 209 210 210 210 212 215 217 220 223 226 228 230 232 231 229 229 232 237 242 246 248 248 249 248 245 246 249 254 255 256 260 261 263 272 279 285 286 283 281 278 277 279 283 289 298 307 311 307 305 306 310 315 312 303 297 291 284 277 279 283 287 302 322 332 334 341 347 345
203 205 206 208 209 209 210 211 212 214 216 217 215 211 208 207 207 208 210 210 211 213 216 218 220 222 224 225 227 229 229 228 227 229 234 238 239 239 240 241 241 242 246 253 258 259 253 248 246 252 261 270 277 277 273 269 266 265 269 274 285 297 305 307 305 305 308 311 315 311 304 299 294 293 292 294 296 292 299 315 327 328 329 333 337
204 206 207 208 208 208 209 211 213 215 215 214 211 209 207 207 207 208 210 211 212 214 217 218 220 222 222 222 224 226 229 232 233 232 232 232 231 231 232 234 237 241 245 250 253 249 239 234 237 243 250 261 270 272 268 261 256 257 262 270 284 296 299 300 300 300 302 304 309 306 296 294 293 292 293 296 299 294 295 308 320 319 319 324 329
205 207 208 208 207 207 209 211 212 214 214 211 210 209 207 207 209 210 211 212 212 214 216 218 220 220 219 219 220 222 227 230 231 231 229 228 227 225 225 227 232 237 240 243 244 238 230 231 236 241 248 258 263 264 263 255 249 250 253 264 277 285 288 292 294 294 293 295 300 297 287 285 285 287 289 291 293 291 294 305 315 315 316 318 322
207 208 209 208 207 208 210 211 212 213 212 211 210 209 207 208 209 211 213 213 213 214 215 218 220 218 217 217 217 219 222 223 223 223 224 226 225 222 222 224 229 235 238 239 238 232 228 231 237 242 249 255 256 257 255 248 243 246 250 255 261 265 271 280 286 286 288 291 292 288 283 282 282 286 290 288 287 288 296 307 312 314 316 319 321
208 209 210 210 210 211 211 211 212 211 210 210 210 209 209 209 210 212 213 213 214 214 215 217 217 216 216 216 216 218 219 219 217 217 220 222 223 222 222 224 229 234 235 236 236 230 226 230 237 244 249 255 259 259 256 252 249 251 254 253 253 255 261 270 276 278 283 285 283 282 283 282 283 286 287 287 284 283 291 303 313 317 318 322 324
207 209 211 212 212 211 212 212 212 211 210 210 210 209 209 210 211 211 213 214 214 214 215 216 216 215 214 214 214 216 216 215 215 215 217 219 222 224 224 225 228 230 231 233 230 220 216 222 234 244 250 255 260 262 261 258 253 251 252 253 256 259 262 266 271 273 276 278 278 281 285 286 286 285 284 284 279 277 285 295 308 316 318 321 325
208 210 211 212 211 212 213 214 213 212 211 210 210 209 209 210 211 211 212 214 214 214 214 215 215 214 213 213 213 214 214 214 215 215 216 218 219 220 220 220 223 227 229 226 214 199 194 205 227 245 253 257 259 263 267 266 262 257 255 257 259 260 262 264 268 271 272 273 276 280 286 290 290 288 286 283 276 272 279 290 300 309 314 317 320
210 211 212 212 211 212 214 215 215 213 212 212 211 211 211 211 212 211 211 212 213 214 214 214 214 213 213 212 211 213 215 214 214 214 217 217 215 216 216 217 221 223 216 213 201 182 175 184 208 236 243 247 256 270 278 279 278 276 273 272 266 261 262 262 265 270 271 271 274 278 283 286 288 289 287 283 275 269 274 284 292 299 306 310 312
210 210 211 212 212 213 214 216 217 216 215 215 214 214 213 213 214 213 212 212 212 213 214 214 214 213 213 212 210 213 213 211 212 214 218 217 214 215 215 216 220 213 203 202 190 176 178 189 200 214 220 228 253 287 300 299 297 297 292 284 275 265 263 262 264 270 273 274 276 278 280 281 284 285 284 282 277 272 272 276 282 290 297 302 306
209 210 212 213 213 215 216 218 219 218 218 218 217 217 216 216 216 216 216 215 214 214 214 214 213 213 213 212 211 211 210 211 212 216 220 218 215 216 216 218 218 208 202 197 186 184 197 207 212 227 239 251 265 281 295 297 298 302 304 297 284 271 266 266 268 270 274 277 279 279 278 278 280 280 280 281 279 276 275 274 274 280 288 294 300
211 212 214 215 215 216 217 219 220 219 218 218 218 219 220 219 218 218 219 217 216 216 214 214 213 211 212 212 210 209 209 210 211 216 220 217 216 218 217 219 216 209 208 204 197 202 214 218 224 237 247 256 267 277 283 285 290 297 301 304 298 281 272 272 272 272 274 277 279 280 278 278 277 278 278 278 277 278 279 278 275 276 281 287 293
213 215 216 216 217 217 217 217 218 218 218 219 220 221 221 221 220 220 220 219 218 217 216 215 213 211 212 213 210 207 208 209 210 216 218 215 218 220 218 219 216 214 218 219 213 212 219 230 237 242 247 253 261 269 272 275 281 286 289 296 303 296 283 276 274 273 273 276 280 283 284 283 279 275 275 275 275 276 278 279 279 279 281 285 289
216 217 218 218 218 218 217 217 217 218 221 221 221 222 223 223 222 221 222 221 220 218 218 217 215 213 213 213 211 207 207 210 211 214 216 215 218 220 221 220 217 219 230 234 229 228 235 244 247 247 249 251 255 260 263 266 271 275 281 289 299 302 293 280 274 273 273 276 281 284 288 289 283 277 275 274 274 274 275 277 279 281 284 287 289
216 217 218 218 218 218 216 216 217 219 221 221 223 224 224 223 222 223 224 223 221 219 218 218 218 215 214 214 212 207 207 209 211 215 215 212 216 221 223 220 217 225 240 247 246 249 252 253 256 256 255 256 259 261 262 263 267 270 276 284 293 297 292 280 272 273 276 278 281 285 289 290 286 282 279 277 275 273 272 273 277 281 284 286 288
214 215 216 216 216 217 217 218 219 220 220 222 224 225 225 224 224 225 225 224 223 220 215 217 219 216 215 216 212 208 207 206 210 214 210 209 215 219 220 223 227 234 244 249 250 254 257 260 266 267 266 267 270 272 271 270 269 270 273 280 286 288 284 276 271 272 277 279 283 288 292 292 289 286 285 282 278 274 272 272 275 279 282 284 286
213 214 216 217 218 220 221 222 222 221 221 223 224 225 226 226 226 226 225 224 224 221 216 215 218 217 216 216 214 208 203 204 209 209 207 207 208 210 221 232 236 241 242 243 248 252 258 267 273 274 273 275 278 278 277 276 275 273 274 278 281 279 276 272 271 272 275 279 286 292 294 292 291 290 289 286 280 274 272 272 274 278 282 284 283
212 215 217 218 219 222 224 225 224 223 223 224 225 226 227 226 226 225 224 223 224 223 218 212 215 219 217 215 213 205 198 203 207 203 204 203 198 213 257 243 230 238 240 240 247 252 261 270 272 273 274 276 277 277 277 278 278 277 276 276 276 272 270 270 271 271 271 277 287 293 293 292 291 291 290 287 281 275 273 275 278 282 284 283 281
212 214 216 218 220 224 226 226 226 224 223 224 225 226 227 228 228 226 224 223 223 224 221 213 213 219 219 215 210 202 196 200 203 203 204 199 202 232 260 228 225 237 238 239 248 253 261 267 267 269 271 271 272 273 275 277 277 277 275 272 270 267 266 269 270 268 269 276 286 291 292 292 292 291 290 286 282 278 278 281 285 287 286 284 281
210 212 216 220 223 226 227 228 228 225 224 224 224 225 226 226 227 225 224 224 224 224 224 218 214 218 219 215 207 200 196 196 202 205 198 199 223 243 219 214 228 237 236 241 250 253 259 264 265 268 268 268 268 270 272 274 273 273 270 266 265 265 266 269 268 267 270 275 282 288 290 292 292 291 289 285 283 282 283 287 290 290 288 285 283
209 212 216 222 225 229 231 230 229 227 225 225 224 225 226 226 226 225 224 225 225 225 226 223 220 220 218 211 203 199 196 196 203 200 195 216 258 233 211 221 232 234 238 245 248 254 260 264 266 268 266 266 267 267 268 271 273 270 265 260 260 261 265 269 270 272 277 279 281 284 287 289 289 288 287 284 283 285 287 290 292 291 289 286 285
208 212 215 221 226 230 232 231 231 230 229 228 228 228 229 228 227 226 226 227 227 226 226 226 225 221 215 207 200 198 197 197 199 197 211 247 246 216 215 228 232 235 244 246 249 255 259 263 266 266 264 264 265 264 262 267 274 270 261 256 256 259 265 270 276 281 284 284 282 281 283 286 286 285 285 283 284 288 290 290 290 290 289 287 286
206 211 216 221 225 229 232 232 234 234 232 231 231 230 229 228 228 229 229 228 228 227 228 229 227 222 213 202 197 200 198 194 198 216 246 248 220 213 224 230 232 240 245 246 252 256 258 263 263 262 264 265 265 262 260 264 270 267 260 258 259 263 269 274 280 285 287 286 281 279 280 283 285 284 283 282 283 287 290 290 289 289 288 285 285
207 213 217 221 225 229 233 236 238 238 237 237 235 232 233 234 234 234 230 228 229 230 229 228 224 218 210 200 198 200 197 197 210 235 247 230 215 221 228 228 234 243 244 248 255 256 259 262 261 262 267 268 267 266 263 265 269 265 260 260 263 268 273 278 283 286 288 284 279 277 279 281 284 284 281 280 281 284 287 288 289 288 286 285 284
209 215 219 225 230 233 236 239 241 243 243 241 237 236 238 238 237 234 232 231 231 226 222 221 217 213 210 207 204 201 199 208 223 234 230 221 220 225 228 231 239 243 245 251 254 258 262 262 261 264 267 268 271 271 267 267 269 267 262 261 264 270 273 278 283 287 289 284 278 275 276 279 283 285 283 280 279 280 283 285 287 288 288 287 285
210 217 224 231 236 239 244 247 249 249 246 241 238 237 238 237 236 235 234 232 227 219 217 221 222 218 217 216 209 203 206 216 223 227 226 224 223 227 231 237 242 245 249 254 256 260 263 262 262 264 264 267 271 271 270 268 267 268 265 263 266 269 272 277 283 288 290 286 280 275 275 279 285 288 288 284 279 277 278 281 286 289 291 290 289
217 228 237 243 248 253 259 264 267 262 254 249 245 241 239 238 237 237 235 231 225 220 219 223 226 221 219 216 209 206 211 219 220 225 228 225 224 229 235 240 246 251 254 257 259 262 263 264 265 263 262 263 263 264 267 263 261 265 267 267 269 270 272 276 281 287 290 287 281 276 276 281 288 291 292 288 283 278 276 279 285 289 291 292 293
226 235 243 247 251 256 262 268 272 270 265 259 251 244 240 239 238 236 233 228 222 218 216 219 225 223 219 216 210 209 217 226 224 226 231 229 229 233 238 245 252 256 259 262 265 266 268 269 268 265 264 263 262 265 267 262 256 259 265 269 271 269 271 273 276 283 289 286 281 278 278 284 289 292 293 291 286 281 278 279 284 288 290 292 296
218 221 223 218 219 227 237 251 261 264 264 259 249 242 238 236 234 230 224 218 217 218 218 223 229 223 216 214 213 215 223 229 227 234 247 246 241 240 245 254 261 265 268 270 270 270 270 271 269 268 269 269 268 269 271 268 261 255 259 267 268 266 268 268 271 280 286 284 281 277 278 284 290 294 294 291 287 283 281 281 283 286 289 292 297
201 203 209 216 223 224 228 240 251 258 261 256 250 245 241 238 236 231 226 224 226 226 225 228 231 224 215 212 213 218 226 229 230 244 262 260 251 251 256 265 271 275 276 274 272 272 272 271 271 272 272 272 271 268 269 269 265 258 257 262 264 264 263 262 268 279 283 281 281 279 280 286 292 296 296 291 288 285 283 283 283 285 289 293 298
192 202 219 233 234 231 233 242 251 260 263 258 254 250 247 247 245 240 234 232 230 228 225 225 228 227 220 215 216 223 232 234 236 251 268 267 261 264 270 274 279 281 281 279 278 277 276 274 275 276 275 275 273 271 269 269 267 262 259 259 261 261 259 260 269 278 278 279 281 281 285 291 294 296 294 290 286 283 281 282 283 286 290 294 298
200 212 228 236 233 233 238 248 260 270 267 262 259 257 253 252 248 241 236 233 233 234 230 224 225 229 225 220 222 229 236 237 241 255 268 269 268 272 275 279 281 282 283 282 282 282 281 278 278 278 277 276 276 274 273 271 271 269 266 263 260 257 256 262 270 273 274 278 280 281 290 297 296 294 291 287 282 280 280 282 284 287 290 293 298
210 220 233 235 235 240 250 261 271 277 271 266 264 259 255 252 248 243 241 241 240 238 232 222 220 227 226 222 223 229 238 244 251 260 268 270 272 274 275 278 280 281 283 284 285 285 284 282 282 281 279 278 278 277 275 273 275 277 273 266 260 255 257 263 268 271 275 276 275 281 293 298 296 293 290 285 281 279 280 283 285 287 290 293 298
214 229 243 249 255 260 267 270 273 276 274 270 267 262 256 252 248 244 243 242 238 232 226 219 220 224 221 217 220 230 245 256 260 266 270 271 272 273 275 277 280 282 285 286 284 282 281 281 281 280 280 281 280 281 281 280 280 282 277 268 262 258 259 264 270 275 277 273 271 281 293 297 294 293 290 285 282 282 281 282 285 287 288 292 300
263 271 274 274 271 269 270 268 267 272 272 270 270 266 256 247 243 238 232 229 228 222 215 214 219 219 212 214 226 240 254 259 260 265 267 266 267 269 271 275 279 282 283 281 277 275 275 277 277 277 279 282 283 285 288 287 284 283 279 273 267 262 261 267 275 276 272 269 271 282 293 297 294 293 290 286 283 282 282 283 284 285 287 294 303
291 285 281 275 269 266 265 261 260 263 263 265 268 263 253 242 235 227 221 220 220 213 209 214 222 220 218 227 241 249 248 247 252 256 257 257 260 264 266 269 273 274 273 272 272 273 274 274 274 274 276 281 284 286 287 285 283 282 282 276 268 261 261 267 273 273 270 268 272 283 294 297 295 293 290 286 282 280 280 281 282 284 290 300 306
293 282 274 267 262 262 264 261 260 257 254 258 258 250 244 238 227 214 208 209 208 209 215 223 225 221 221 230 237 234 233 240 245 248 250 254 258 260 261 262 264 265 267 269 272 273 274 274 273 273 276 280 283 283 281 279 279 281 282 277 269 265 265 267 267 268 268 268 274 286 294 295 293 293 292 284 277 275 276 279 283 289 297 304 305
295 277 266 260 259 264 268 270 268 261 252 250 246 238 234 231 224 214 207 204 204 209 215 212 204 203 204 205 212 223 232 238 241 244 248 251 253 253 255 257 259 262 264 267 270 272 275 277 277 278 279 280 279 278 277 278 279 281 282 280 275 269 264 263 265 267 268 270 278 290 295 293 293 295 292 281 273 273 276 281 288 296 301 302 302
297 276 267 264 264 269 274 276 273 267 256 248 240 233 227 223 219 212 204 205 204 198 187 176 182 198 204 204 212 225 233 236 240 245 248 249 249 251 253 255 257 259 261 264 269 273 278 281 282 282 281 279 279 279 278 278 278 276 277 281 281 272 259 258 265 270 271 275 285 293 294 292 293 293 285 273 270 274 280 287 294 299 299 299 300
305 291 281 274 270 271 274 275 273 269 260 249 234 222 217 215 210 200 198 207 203 185 173 181 196 203 207 214 219 222 225 230 235 240 245 247 248 249 251 252 255 258 262 268 274 278 280 282 281 282 281 280 279 279 278 276 275 273 274 279 280 273 264 264 268 272 275 282 289 293 293 290 288 283 272 266 269 277 285 292 297 296 295 299 305
319 306 291 280 274 270 270 270 269 265 256 239 213 198 194 189 179 172 174 179 177 171 173 187 203 210 214 222 225 224 226 228 229 233 239 243 245 247 248 252 258 264 268 272 276 278 280 281 282 284 283 281 281 282 281 280 277 275 275 273 270 269 270 272 273 275 281 286 289 289 289 286 279 270 265 267 275 284 290 294 294 294 297 304 310
327 312 299 288 276 266 265 263 257 250 233 204 182 173 168 162 160 165 167 166 167 169 168 173 201 222 222 223 228 231 232 231 231 234 238 241 245 249 253 260 266 268 268 270 273 275 278 282 286 289 289 287 287 286 283 281 279 276 273 268 268 270 274 276 276 278 282 285 285 283 285 284 276 267 267 274 282 288 292 292 293 297 303 308 312